Theta_e
311 320 325 327 326 324 326 329 324 324 323 324 325 323 334 337 339 338 344 345 344 346 345 340 333 333 331 328 327 326 325 329 334 335 334 333 341 338 332 326 338 338 331 328 318 321 321 319 321
312 324 324 325 323 325 324 322 322 321 323 324 324 326 335 340 344 343 342 342 344 347 345 342 339 336 334 331 328 326 325 329 331 335 335 332 341 337 336 330 337 336 323 319 316 318 318 318 318
309 322 323 321 320 324 322 320 319 321 322 321 322 331 334 341 345 345 343 339 338 345 344 342 343 338 336 331 328 325 320 329 329 333 334 333 340 337 337 334 334 336 319 314 315 316 316 316 316
319 318 321 320 321 321 321 320 321 319 321 321 320 332 334 340 343 342 338 336 338 345 344 343 344 340 335 330 327 322 323 331 327 331 333 334 339 337 337 332 329 334 316 316 316 316 317 318 318
319 319 318 319 318 316 316 318 319 317 317 319 318 330 333 338 339 340 337 335 337 343 344 344 344 340 332 329 325 323 334 332 330 331 333 334 339 338 331 326 328 330 317 317 318 318 319 319 319
316 317 316 320 318 316 314 316 315 315 316 317 316 319 330 337 333 333 334 336 339 341 343 344 343 340 331 328 324 330 336 332 331 333 333 334 339 335 323 328 329 324 318 318 319 319 320 320 320
314 313 315 314 313 312 313 316 313 313 313 314 316 315 318 333 336 335 337 337 337 340 344 344 344 339 334 331 324 334 337 330 332 335 332 337 340 334 320 328 330 319 319 319 320 321 321 320 320
311 311 313 314 316 315 313 313 313 313 312 314 314 314 317 325 333 332 332 334 335 336 341 341 342 338 335 330 326 336 338 328 334 335 334 339 339 335 321 322 333 323 320 320 321 321 321 321 320
310 310 311 312 312 312 312 310 312 311 312 313 313 313 315 323 330 332 332 332 332 333 335 338 341 338 334 330 332 336 338 330 334 333 338 340 339 333 333 332 334 324 321 322 322 321 320 320 319
309 308 309 309 309 308 308 309 309 309 309 310 311 313 319 326 328 329 330 331 330 329 332 335 340 337 335 331 331 337 338 333 333 334 340 340 339 331 331 334 335 329 321 323 322 321 320 319 318
309 309 309 309 309 309 310 309 308 308 308 309 310 312 313 316 326 327 325 327 330 329 330 331 333 335 336 330 330 329 336 336 336 337 340 339 338 332 330 337 334 334 324 322 322 321 319 319 320
306 307 307 308 308 308 307 307 307 307 307 308 309 310 312 315 322 330 325 323 324 326 328 328 327 330 334 325 329 327 330 338 337 338 340 338 335 330 334 336 333 330 321 322 322 321 319 320 321
307 307 308 308 308 308 307 307 307 307 307 307 308 308 310 312 315 320 327 327 327 326 325 327 327 325 324 323 328 328 329 337 339 338 338 332 323 328 334 332 326 322 321 322 321 320 321 321 320
307 308 308 308 308 309 310 310 307 307 307 307 307 308 308 311 313 318 321 325 326 327 326 327 326 324 323 322 325 327 331 331 337 337 334 328 321 324 328 325 321 321 321 321 321 321 321 322 320
308 308 309 308 308 309 310 310 309 308 307 307 307 307 307 310 312 317 320 321 324 325 327 327 325 325 326 324 325 328 331 331 334 333 330 329 329 328 327 322 321 321 320 322 323 323 323 324 327
307 308 308 309 309 309 309 308 308 308 308 307 307 307 307 308 312 316 321 322 323 324 328 328 327 327 327 328 328 331 329 328 330 330 331 330 331 331 325 324 321 321 323 324 322 322 324 327 330
307 305 307 309 310 310 310 310 309 309 308 307 307 307 307 309 315 316 319 322 323 324 327 326 327 331 327 328 329 326 328 330 331 330 331 331 331 328 329 327 326 323 322 321 321 322 324 327 328
309 308 309 310 311 311 312 313 312 310 309 308 310 310 309 312 315 315 317 323 323 323 322 325 328 329 326 326 324 328 329 329 329 332 331 331 330 328 328 326 323 322 323 322 322 324 326 326 325
308 309 309 309 310 313 313 313 312 310 311 310 309 311 312 314 316 316 319 323 323 326 326 324 326 327 326 325 326 329 331 330 329 329 330 330 327 325 325 324 327 327 327 326 326 326 327 327 327
309 311 310 310 312 313 313 313 311 310 310 311 311 313 312 313 318 320 323 322 323 326 324 326 326 326 325 325 327 328 327 327 329 329 329 327 327 328 327 326 329 330 330 330 330 329 328 327 327
312 312 310 312 311 312 313 315 313 312 312 310 313 313 314 315 317 321 322 322 324 324 325 327 326 326 322 325 328 326 323 322 324 323 328 331 331 332 330 330 331 331 330 331 331 331 330 329 328
314 311 313 315 315 316 313 315 315 313 312 313 312 314 315 315 319 322 323 323 324 325 324 324 328 325 323 326 327 328 327 324 325 326 325 328 330 330 332 332 331 330 331 332 332 331 330 331 329
313 313 314 314 317 314 315 317 318 314 314 314 311 313 315 318 321 322 322 321 324 324 325 324 326 323 326 325 327 328 328 329 328 327 327 326 327 328 329 328 329 329 329 328 330 328 329 328 329
313 314 314 315 316 319 319 319 317 314 313 313 316 316 319 321 322 322 322 320 323 324 324 326 326 326 326 327 327 327 327 327 327 327 328 326 327 328 328 328 326 326 324 328 327 326 326 326 328
313 315 315 319 320 321 317 318 315 310 314 314 320 322 322 322 321 321 322 322 325 326 326 325 325 325 325 326 326 326 325 326 325 325 326 327 328 327 327 327 328 328 327 326 326 325 326 327 326
314 316 318 319 323 323 317 316 312 310 319 318 318 317 320 321 321 321 321 321 323 322 323 324 324 324 324 324 325 325 325 324 325 325 325 324 325 324 324 324 325 326 325 326 326 325 327 325 325
316 318 315 317 319 320 318 313 311 312 315 316 316 316 315 315 317 317 319 320 321 321 322 321 322 323 322 322 324 324 324 325 325 325 327 327 325 324 324 324 325 324 324 325 326 325 324 323 324
313 314 317 316 319 322 319 317 315 312 316 315 314 314 314 315 315 316 316 316 317 318 317 316 317 317 317 318 321 324 325 325 326 329 326 326 326 326 325 326 326 325 326 326 326 326 325 325 324
314 315 315 313 314 320 318 318 311 315 314 313 311 311 313 313 313 314 314 314 315 315 316 316 317 317 318 318 320 321 322 323 324 325 326 326 325 325 325 325 325 326 326 328 328 327 327 325 325
312 314 312 312 315 312 312 317 314 313 312 311 310 309 309 309 309 309 310 309 309 309 310 311 311 312 314 315 316 316 316 316 316 317 317 318 318 318 319 320 320 322 325 326 327 327 326 327 326
Wind_Speed
8 9 5 3 2 2 4 7 9 12 5 9 23 12 4 2 3 4 13 12 10 13 15 20 21 21 19 17 17 16 17 17 16 16 14 13 16 15 16 19 19 16 16 15 16 18 20 20 22
6 8 1 2 3 2 6 7 11 10 19 27 30 18 3 3 8 14 14 10 10 11 14 16 21 20 19 17 16 16 17 18 18 17 16 14 17 16 17 19 19 14 14 15 17 19 19 19 20
3 5 0 3 4 8 5 5 14 18 23 22 11 6 2 5 14 14 9 9 11 12 13 14 21 20 18 17 15 15 18 19 20 19 18 17 18 18 19 19 19 15 15 17 18 18 18 18 17
4 1 3 1 7 9 12 11 20 10 29 27 14 2 4 9 9 11 10 7 4 13 14 12 19 18 18 16 14 14 17 19 21 21 20 19 19 20 20 20 20 16 18 18 18 18 18 17 17
5 2 2 4 9 8 7 16 23 14 14 23 22 5 6 9 9 9 8 6 6 12 13 15 18 16 16 14 13 15 17 19 21 22 21 21 21 21 19 21 22 18 20 19 18 17 17 16 16
2 3 2 8 10 8 8 26 21 15 20 27 18 6 7 16 16 13 11 8 7 10 14 15 14 15 14 12 12 15 18 20 22 23 23 23 21 21 21 24 22 22 21 19 18 16 15 15 14
2 1 4 5 6 8 8 22 13 15 13 19 21 7 17 20 19 16 16 12 11 16 20 20 18 14 12 11 12 15 18 21 24 24 24 24 22 23 24 23 23 25 22 19 17 15 14 12 12
2 1 3 4 7 10 10 17 14 18 19 25 19 4 10 11 18 20 16 14 16 17 21 22 21 19 17 12 13 14 18 22 25 25 25 26 24 25 25 24 22 24 23 20 17 14 12 11 10
3 2 2 4 7 8 16 12 31 20 16 27 24 24 23 12 15 18 19 20 20 21 23 23 26 24 18 14 13 14 17 22 23 24 26 27 24 26 26 25 23 23 23 19 16 13 11 9 8
5 4 6 5 4 6 17 16 20 19 24 20 32 24 10 8 14 18 20 21 21 23 24 27 29 27 21 14 13 11 17 24 27 27 30 28 24 27 26 26 22 21 23 19 15 12 10 8 7
5 4 3 12 22 23 19 20 21 15 16 15 21 31 25 20 15 19 18 18 20 22 25 26 28 18 20 8 3 11 19 28 29 31 33 29 27 29 29 28 25 22 22 21 16 12 9 8 8
6 11 14 15 20 21 17 22 20 23 21 28 27 31 27 20 12 19 22 21 24 27 24 29 26 28 41 43 35 27 28 32 36 34 32 26 26 32 31 29 27 26 23 19 14 11 10 8 7
9 7 14 20 22 22 27 23 23 30 36 33 34 31 30 23 18 12 13 19 20 21 22 24 29 24 25 29 36 26 33 37 39 36 32 25 28 33 30 30 29 24 20 17 15 13 11 9 7
6 16 20 22 22 23 20 22 23 21 27 35 35 34 29 27 24 18 14 16 20 18 19 24 23 26 25 27 42 27 38 39 37 33 34 27 27 29 28 25 23 21 20 18 16 14 10 6 9
13 9 10 12 16 10 21 18 25 26 27 32 33 34 26 26 27 22 15 20 21 21 20 22 21 25 20 24 44 29 40 36 37 25 25 28 25 25 25 25 26 23 21 17 14 12 13 11 8
4 2 4 3 3 9 8 18 18 18 24 27 33 34 31 28 26 24 14 20 21 21 23 22 19 22 23 23 34 31 38 36 31 28 32 29 28 25 27 26 25 23 20 19 17 15 14 13 12
3 2 4 9 3 7 7 13 11 24 23 24 27 29 33 27 21 25 20 24 22 17 20 24 19 28 25 18 28 31 31 34 33 33 31 35 31 29 29 25 23 23 21 20 17 16 15 15 15
1 4 7 11 5 12 19 21 17 18 17 21 16 24 26 27 25 24 21 22 25 26 23 18 23 27 27 21 22 28 27 38 35 36 37 34 30 29 29 27 24 22 21 19 18 17 16 13 12
6 7 14 17 16 12 12 18 16 12 12 12 17 21 25 24 24 23 20 23 21 22 20 21 23 26 26 30 27 37 33 31 32 32 39 35 29 28 27 26 23 22 21 18 16 16 16 15 15
12 15 18 18 9 4 11 13 11 8 8 11 17 21 28 19 17 17 20 24 26 25 23 21 29 24 29 29 33 35 24 23 29 29 29 29 27 27 26 26 23 21 19 18 17 17 16 16 18
13 11 10 12 7 11 12 9 6 4 10 17 19 19 23 16 13 17 21 20 23 24 21 19 27 30 32 28 26 20 18 17 24 22 23 27 26 23 22 24 24 23 21 19 19 19 19 19 20
12 8 9 8 2 3 3 5 2 3 6 5 16 16 11 15 13 19 16 16 23 22 17 19 22 33 30 24 24 25 27 28 24 25 29 26 25 25 24 22 23 22 21 18 18 18 19 20 23
7 9 11 13 8 2 6 5 0 7 6 7 8 15 14 10 18 11 8 4 7 24 28 25 21 30 23 18 20 21 18 19 21 18 17 19 21 23 22 23 21 19 18 20 21 21 20 26 26
7 8 12 6 3 5 0 3 1 4 6 6 3 12 14 17 16 9 5 5 5 19 24 29 27 20 23 16 16 15 14 14 12 9 13 21 21 18 19 22 18 23 22 23 17 17 18 27 28
6 2 3 3 4 2 2 0 2 12 14 9 7 16 16 18 15 15 11 9 9 27 24 29 21 15 20 13 8 11 11 8 8 10 14 17 19 19 17 15 18 18 19 20 20 20 23 22 18
5 2 2 4 4 2 4 5 6 17 9 18 24 18 27 21 22 22 13 21 30 30 22 23 19 9 11 11 15 12 12 13 15 15 21 24 23 26 25 27 27 20 23 24 27 25 25 22 20
2 4 4 3 4 2 2 0 7 18 14 21 17 25 22 21 18 14 13 22 23 23 20 20 18 12 15 8 6 14 16 16 19 18 21 22 28 21 15 16 20 22 25 26 26 27 29 23 21
7 5 1 2 3 4 4 4 5 11 12 14 13 17 20 21 20 21 20 20 17 13 9 8 8 8 8 6 5 7 8 8 9 11 12 16 20 28 29 26 21 26 28 28 33 31 29 27 25
2 4 4 2 3 1 2 3 5 10 11 13 11 18 21 24 23 25 24 22 21 20 18 15 13 10 8 7 6 7 5 6 8 9 11 11 13 17 18 23 26 26 26 26 33 35 35 32 31
3 5 2 3 3 3 3 4 3 8 7 17 15 20 24 24 23 24 22 22 22 21 20 19 16 14 12 9 6 4 3 1 2 4 7 9 11 12 14 17 19 21 22 24 23 25 28 33 33
Wind_Direction
177 165 136 327 89 90 238 238 236 276 306 260 259 302 249 118 131 183 139 174 196 190 176 188 185 177 176 179 180 185 187 187 184 183 179 171 164 159 146 141 138 147 151 142 139 131 123 119 115
166 152 172 258 130 181 258 191 268 260 264 278 287 300 241 101 112 132 140 178 193 195 188 194 187 184 182 185 188 189 192 189 189 186 182 180 169 164 154 146 147 151 152 145 136 128 122 118 117
121 120 116 152 185 206 240 197 220 255 277 305 298 267 318 79 125 137 141 158 207 198 192 196 192 189 189 189 193 193 193 189 192 187 185 181 175 170 161 157 158 158 155 145 139 132 127 122 121
83 110 261 212 224 237 247 293 290 294 298 300 335 211 140 129 132 138 134 126 163 188 192 196 205 197 193 192 195 192 187 188 190 186 185 182 181 175 168 164 168 164 157 148 141 135 130 127 126
157 192 233 227 243 268 270 262 265 290 297 298 318 272 194 160 153 144 161 141 123 191 199 198 210 203 195 196 193 190 189 189 187 187 186 185 184 181 175 170 173 168 159 151 145 138 134 130 128
295 210 209 230 247 267 259 271 276 271 277 288 310 316 248 181 218 217 224 204 160 188 199 201 203 203 201 200 193 192 192 193 190 189 188 187 185 181 174 171 172 169 159 154 148 143 138 134 131
143 36 228 232 262 268 254 272 283 290 308 296 292 301 305 195 187 185 184 192 194 189 193 199 191 199 202 199 194 198 198 196 193 192 188 188 186 181 181 172 163 164 161 159 155 150 145 140 136
248 153 233 233 240 272 279 300 294 313 303 306 316 298 292 258 195 206 205 196 205 215 205 205 193 185 187 190 193 206 207 198 195 193 189 186 187 183 177 169 167 167 166 165 162 157 151 146 139
235 268 217 227 230 254 295 299 298 310 299 299 299 307 307 284 214 204 201 200 199 215 224 214 196 189 181 179 199 205 211 202 198 194 191 188 190 179 172 166 170 169 168 170 167 161 156 149 144
186 209 196 242 298 320 313 311 315 319 307 303 305 302 360 278 223 208 213 212 213 216 226 225 208 179 171 173 179 213 221 205 200 196 194 194 197 182 177 168 174 176 172 173 172 169 164 159 154
226 222 255 287 295 294 288 295 302 293 290 295 294 301 314 328 259 232 214 224 221 218 228 230 227 216 188 120 208 260 228 207 204 200 195 198 194 181 179 173 176 177 181 174 176 176 175 174 171
274 258 264 272 272 280 282 289 281 282 273 285 291 300 298 316 336 249 245 245 237 239 236 232 242 245 236 282 259 275 238 212 202 198 198 201 203 189 183 179 181 183 182 177 180 184 186 192 196
270 273 276 281 281 279 273 260 263 268 282 280 284 287 292 296 305 293 273 258 237 236 249 241 244 251 268 254 244 281 227 210 204 198 197 201 200 189 186 188 188 187 182 183 188 187 193 194 201
284 305 290 284 280 283 276 275 253 255 266 275 274 277 286 288 294 277 283 255 259 247 247 247 246 258 257 244 249 278 226 218 191 195 188 192 196 190 189 192 193 187 189 189 194 196 203 198 203
284 291 277 253 258 258 271 273 251 260 256 262 273 276 276 282 284 279 290 274 259 260 246 240 250 266 244 231 225 256 215 216 215 196 195 193 200 195 190 190 189 189 190 197 198 202 207 209 196
244 255 324 207 271 249 210 271 264 268 253 250 262 269 271 274 273 264 273 254 259 252 238 234 251 254 222 223 213 222 202 208 201 197 183 190 199 204 192 189 191 193 194 201 206 207 205 200 208
268 289 301 311 242 257 268 276 310 255 245 248 254 266 262 258 265 251 263 253 247 246 238 238 243 215 211 194 163 176 194 194 192 184 188 194 200 196 195 195 195 198 200 205 207 206 207 212 216
249 310 278 278 312 293 275 263 269 249 231 245 270 284 271 253 255 254 254 240 242 241 243 224 226 205 208 207 163 195 192 198 198 194 196 197 202 201 200 200 198 199 201 202 202 201 205 208 204
271 283 286 288 282 295 268 271 269 229 223 253 263 270 247 246 255 252 249 228 235 224 212 229 222 198 188 201 202 198 208 187 192 201 207 209 201 199 198 200 199 200 204 205 207 206 207 209 200
265 274 274 281 260 278 282 273 265 209 218 243 242 235 235 252 266 248 223 220 224 218 227 217 210 219 217 213 195 196 185 191 199 198 193 199 200 200 199 200 202 206 205 203 205 209 209 208 207
259 247 258 265 294 268 259 280 239 228 206 226 247 271 230 245 264 227 211 217 224 219 224 229 216 213 187 184 184 188 201 204 199 202 204 195 196 199 202 207 206 210 212 216 217 215 213 211 213
268 240 268 297 264 273 72 283 358 320 297 229 244 245 234 243 233 209 183 209 214 215 222 231 217 195 185 185 183 176 181 188 194 196 200 198 198 208 207 208 214 217 220 222 229 237 254 234 228
261 330 305 284 260 278 226 243 184 328 294 271 250 235 223 240 196 175 171 214 255 223 224 228 213 176 180 183 182 175 177 179 177 194 200 202 202 201 210 214 220 222 233 238 242 247 250 260 244
306 292 276 240 234 243 273 199 264 317 287 286 173 175 164 162 145 140 143 245 317 195 207 196 172 151 161 162 148 162 158 166 176 185 203 204 212 212 215 215 222 230 245 245 246 256 265 260 251
221 280 315 246 191 360 305 340 276 304 298 254 147 140 132 129 124 105 70 75 121 155 142 155 159 153 167 172 169 169 173 179 196 218 234 229 223 219 217 240 239 232 224 232 257 254 251 251 241
314 315 268 306 359 45 26 354 327 306 84 96 100 96 94 93 108 104 90 97 97 101 104 116 114 137 185 224 229 212 198 217 209 242 244 244 245 251 258 263 239 249 263 256 255 255 238 226 228
105 228 179 254 216 157 354 189 292 357 47 64 70 82 75 90 98 93 114 108 99 102 103 112 119 134 144 154 113 211 231 215 215 232 247 245 247 243 251 259 241 238 262 252 246 247 235 240 243
219 333 341 251 9 64 12 21 22 0 52 71 62 78 82 91 99 99 95 93 96 105 111 125 142 161 167 185 210 222 209 215 234 247 242 249 244 244 252 246 244 246 251 252 248 244 243 239 249
242 292 243 248 139 118 73 30 1 48 62 78 63 83 88 88 93 97 95 94 98 101 103 104 110 123 139 156 186 213 210 217 235 249 258 259 254 246 247 246 249 255 257 252 245 247 245 241 249
261 265 274 103 27 52 90 55 337 80 61 90 78 76 89 95 91 89 87 88 87 83 83 85 87 90 92 97 100 88 81 99 239 262 274 278 274 274 268 261 257 253 252 250 246 242 241 246 251